FW2498 Weather Reports


Display with metric or nautical units.
time (UTC)temp
F
wind
direction
speed
MPH
gust
MPH
rain 1hr
in
rain 24hr
in
rain mn
in
humidity
%
barometer
mb
20260506061502 34 307 4.0 7.0 0.00 0.00 0.00 40 1021.4
20260506044608 35 312 8.0 9.0 0.00 0.00 0.00 41 1021.2
20260506043056 35 302 6.0 7.0 0.00 0.00 0.00 41 1021.2
20260506041607 35 306 5.0 8.0 0.00 0.00 0.00 42 1021.2
20260506040058 36 316 6.0 9.0 0.00 0.00 0.00 42 1021.1
20260506034556 37 325 7.0 9.0 0.00 0.00 0.00 41 1021.0
20260506033055 38 329 7.0 9.0 0.00 0.00 0.00 40 1021.1
20260506031551 39 337 7.0 9.0 0.00 0.00 0.00 39 1020.9
20260506030049 41 343 7.0 9.0 0.00 0.00 0.00 40 1020.8
20260506024548 41 335 6.0 9.0 0.00 0.00 0.00 40 1020.7
20260506023053 42 325 5.0 8.0 0.00 0.00 0.00 39 1020.4
20260506021545 42 327 6.0 10.0 0.00 0.00 0.00 38 1020.5
20260506020113 43 320 6.0 10.0 0.00 0.00 0.00 38 1020.3
20260506014545 43 314 10.0 12.0 0.00 0.00 0.00 37 1020.1
20260506013043 43 333 9.0 13.0 0.00 0.00 0.00 38 1020.0
20260506011547 43 315 12.0 18.0 0.00 0.00 0.00 37 1020.0
20260506010042 43 323 13.0 16.0 0.00 0.00 0.00 36 1020.0
20260506004544 43 333 12.0 18.0 0.00 0.00 0.00 37 1020.0
20260506003041 43 329 11.0 16.0 0.00 0.00 0.00 37 1020.0
20260506001547 43 329 13.0 17.0 0.00 0.00 0.00 37 1020.0
20260506000055 43 310 14.0 23.0 0.00 0.00 0.00 37 1020.0
20260505234542 43 346 13.0 23.0 0.00 0.00 0.00 38 1020.0
20260505233037 44 335 14.0 21.0 0.00 0.00 0.00 36 1019.8
20260505231538 44 323 14.0 23.0 0.00 0.00 0.00 37 1019.8
20260505230044 43 343 18.0 22.0 0.00 0.00 0.00 37 1019.7
20260505224544 43 327 13.0 22.0 0.00 0.00 0.00 36 1019.7
20260505223039 43 339 14.0 22.0 0.00 0.00 0.00 36 1019.7
20260505221536 44 350 18.0 23.0 0.00 0.00 0.00 36 1019.6
20260505220032 43 332 19.0 23.0 0.00 0.00 0.00 37 1019.7
20260505214531 43 309 12.0 21.0 0.00 0.00 0.00 38 1019.8
20260505213031 42 316 13.0 25.0 0.00 0.00 0.00 38 1019.9
20260505211539 43 323 16.0 23.0 0.00 0.00 0.00 39 1019.9
20260505210028 43 325 17.0 26.0 0.00 0.00 0.00 38 1020.0
20260505204524 42 309 15.0 24.0 0.00 0.00 0.00 40 1020.1
20260505203023 41 347 14.0 19.0 0.00 0.00 0.00 40 1020.1
20260505201522 41 305 14.0 23.0 0.00 0.00 0.00 39 1020.4
20260505200122 41 339 16.0 24.0 0.00 0.00 0.00 39 1020.3
20260505194520 41 336 14.0 23.0 0.00 0.00 0.00 39 1020.5
20260505193017 41 317 14.0 24.0 0.00 0.00 0.00 40 1020.4
20260505191519 41 309 12.0 18.0 0.00 0.00 0.00 41 1020.2
20260505190016 40 350 12.0 25.0 0.00 0.00 0.00 41 1020.2
20260505184514 40 330 13.0 21.0 0.00 0.00 0.00 42 1020.3
20260505183014 39 333 11.0 23.0 0.00 0.00 0.00 43 1020.2
20260505181512 39 349 17.0 22.0 0.00 0.00 0.00 42 1020.3
20260505180010 38 300 15.0 22.0 0.00 0.00 0.00 43 1020.3
20260505174609 38 350 13.0 27.0 0.00 0.00 0.00 43 1020.3
20260505173008 38 318 13.0 25.0 0.00 0.00 0.00 44 1020.3
20260505171514 39 336 14.0 23.0 0.00 0.00 0.00 43 1020.1
20260505170008 38 333 16.0 28.0 0.00 0.00 0.00 42 1020.1
20260505164505 38 339 16.0 24.0 0.00 0.00 0.00 41 1019.9
20260505163009 37 300 13.0 21.0 0.00 0.00 0.00 45 1020.1
20260505161502 38 319 18.0 22.0 0.00 0.00 0.00 44 1019.9
20260505153056 36 315 18.0 24.0 0.00 0.00 0.00 49 1020.1
20260505151551 35 323 16.0 21.0 0.00 0.00 0.00 53 1020.1
20260505124526 34 323 11.0 15.0 0.00 0.00 0.00 66 1018.8
20260505123027 34 314 10.0 13.0 0.00 0.00 0.00 66 1018.8
20260505121517 33 312 9.0 13.0 0.00 0.00 0.00 68 1018.6
20260505120014 33 296 6.0 10.0 0.00 0.00 0.00 68 1018.5
20260505114512 33 300 10.0 13.0 0.00 0.00 0.00 67 1018.6
20260505113013 33 302 5.0 10.0 0.00 0.00 0.00 67 1018.3
20260505111511 33 304 7.0 10.0 0.00 0.00 0.00 67 1018.3
20260505101505 34 289 8.0 12.0 0.00 0.00 0.00 65 1018.2
20260505100003 34 298 9.0 13.0 0.00 0.00 0.00 65 1018.1
20260505094559 34 312 9.0 11.0 0.00 0.00 0.00 64 1017.9
20260505093057 34 303 8.0 13.0 0.00 0.00 0.00 64 1017.7
20260505091557 35 294 9.0 14.0 0.00 0.00 0.00 63 1017.6
20260505090056 35 293 7.0 11.0 0.00 0.00 0.00 62 1017.6
20260505084601 35 296 9.0 13.0 0.00 0.00 0.00 62 1017.6
20260505083105 35 295 9.0 13.0 0.00 0.00 0.00 61 1017.6
20260505081548 35 304 8.0 13.0 0.00 0.00 0.00 61 1017.6
20260505080047 35 309 6.0 11.0 0.00 0.00 0.00 61 1017.4
20260505074546 35 304 9.0 12.0 0.00 0.00 0.00 60 1017.4
20260505073049 35 308 8.0 12.0 0.00 0.00 0.00 60 1017.3
20260505071543 35 311 9.0 13.0 0.00 0.00 0.00 59 1017.3
20260505070042 35 304 9.0 12.0 0.00 0.00 0.00 59 1017.4